Find Starlink 4112

NORAD ID: 52861 Int'l Des: 2022-062 Owner: SPXS Country: US Constellation: starlink operational
LEOCIRCULAR

Current View

Loading 3D Globe...

About Starlink 4112

Description loading...

Upcoming Passes

Passes for default location (London). Set your location on the main map for personalized predictions.

Altitude History

Loading altitude history...

Two-Line Element Set

1 52861U 22062AH 26150.06902944 .00000403 00000-0 43433-4 0 9990
2 52861 53.1989 18.7986 0001350 92.4450 267.6696 15.08839148218214
Epoch: May 30, 2026 • Age: 10 hours

Current Status

Altitude 541.7 km
Velocity 7.59 km/s
Sub-Earth Point -5.59°S, 42.6°W
Launch Date Jun 17, 2022
Age 3.9 years
Type internet

Technical Details

Classification Payload
Mass 297.00 kg
Dry Mass 275.00 kg
Total Mass 297.00 kg
Length 0.20 m
Diameter 2.80 m
Span 9.00 m
Shape Box + pan
Manufacturer SPXS
Bus Type Starlink
Phase Status In Orbit
Owner/State SPXS/US

Most Searched